Location: *
(49.6619°S, 177.4603°W)
Time: 05:47:06
(UTC+00:00)

Ariane Rocket - Pass Details

Date: 31 January 2023
Orbit: 758 x 769 km, 98.6° (Epoch: 01 April)

Event Time Altitude Azimuth Distance (km) Brightness Sun altitude
Rises 10:26:02 0° 169° (S) 3,262 7.1 -19.6°
Reaches altitude 10° 10:28:23 10° 173° (S) 2,329 6.3 -19.7°
Maximum altitude 10:33:24 55° 249° (WSW) 923 3.6 -20.1°
Enters shadow 10:37:04 18° 321° (NW) 1,822 4.7 -20.3°
